• In Hungary
  • List of Countries
  • For 7 days
  • Water Temperature
  • Satellite Maps
  • Weather Map
  • News
  • Weather Widgets
  • user-avatar
    Login

    Hourly Weather Postiine

    Today, 22 November, Wednesday

    Time Temperature Precipitation Wind Pressure Humidity
    00:00 -3°C° 0 mm 2 mps 742 mmHg 89%
    01:00 -3°C° 0 mm 2 mps 743 mmHg 89%
    02:00 -1°C° 0 mm 1 mps 743 mmHg 90%
    03:00 -1°C° 0 mm 1 mps 743 mmHg 90%
    04:00 -1°C° 0 mm 1 mps 743 mmHg 90%
    05:00 -1°C° 0 mm 1 mps 743 mmHg 90%
    06:00 -1°C° 0 mm 1 mps 743 mmHg 90%
    07:00 -2°C° 0 mm 0 mps 743 mmHg 90%
    08:00 -2°C° 0 mm 0 mps 743 mmHg 90%
    09:00 -1°C° 0 mm 0 mps 744 mmHg 84%
    10:00 0°C° 0 mm 0 mps 744 mmHg 78%
    11:00 +1°C° 0 mm 0 mps 744 mmHg 71%
    12:00 +2°C° 0 mm 1 mps 744 mmHg 69%
    13:00 +3°C° 0 mm 1 mps 744 mmHg 66%
    14:00 +3°C° 0 mm 1 mps 744 mmHg 64%
    15:00 +2°C° 0 mm 1 mps 744 mmHg 68%
    16:00 +2°C° 0 mm 1 mps 744 mmHg 72%
    17:00 -1°C° 0 mm 2 mps 744 mmHg 76%
    18:00 -1°C° 0 mm 2 mps 744 mmHg 76%
    19:00 -1°C° 0 mm 2 mps 745 mmHg 75%
    20:00 -1°C° 0 mm 2 mps 745 mmHg 75%
    21:00 -1°C° 0 mm 2 mps 745 mmHg 76%
    22:00 -1°C° 0 mm 2 mps 745 mmHg 77%
    23:00 +1°C° 0 mm 2 mps 745 mmHg 78%

    Tomorrow, 23 November, Thursday

    Time Temperature Precipitation Wind Pressure Humidity
    00:00 +1°C° 0 mm 2 mps 745 mmHg 79%
    01:00 -1°C° 0 mm 2 mps 745 mmHg 81%
    02:00 -1°C° 0 mm 3 mps 746 mmHg 82%
    03:00 0°C° 0 mm 3 mps 746 mmHg 83%
    04:00 0°C° 0 mm 3 mps 746 mmHg 84%
    05:00 0°C° 0 mm 3 mps 746 mmHg 85%
    06:00 -1°C° 0 mm 3 mps 746 mmHg 87%
    07:00 -1°C° 0 mm 3 mps 747 mmHg 89%
    08:00 -1°C° 0 mm 2 mps 747 mmHg 91%
    09:00 0°C° 0 mm 3 mps 747 mmHg 87%
    10:00 +1°C° 0 mm 3 mps 747 mmHg 84%
    11:00 +2°C° 0 mm 3 mps 747 mmHg 80%
    12:00 +2°C° 0 mm 3 mps 747 mmHg 80%
    13:00 +3°C° 0 mm 3 mps 747 mmHg 80%
    14:00 +4°C° 0 mm 2 mps 747 mmHg 79%
    15:00 +3°C° 0 mm 2 mps 747 mmHg 82%
    16:00 +3°C° 0 mm 2 mps 748 mmHg 85%
    17:00 +2°C° 0 mm 2 mps 748 mmHg 88%
    18:00 +1°C° 0 mm 3 mps 748 mmHg 89%
    19:00 +1°C° 0 mm 3 mps 748 mmHg 90%
    20:00 0°C° 0 mm 3 mps 748 mmHg 92%
    21:00 0°C° 0 mm 3 mps 748 mmHg 92%
    22:00 0°C° 0 mm 3 mps 748 mmHg 92%
    23:00 0°C° 0 mm 3 mps 748 mmHg 93%

    Day after tomorrow, 24 November, Friday

    Time Temperature Precipitation Wind Pressure Humidity
    00:00 0°C° 0 mm 3 mps 748 mmHg 93%
    01:00 0°C° 0 mm 3 mps 748 mmHg 92%
    02:00 0°C° 0 mm 3 mps 749 mmHg 92%
    03:00 0°C° 0 mm 3 mps 749 mmHg 93%
    04:00 0°C° 0 mm 3 mps 749 mmHg 93%
    05:00 0°C° 0 mm 3 mps 749 mmHg 93%
    06:00 0°C° 0 mm 3 mps 749 mmHg 93%
    07:00 0°C° 0 mm 3 mps 749 mmHg 93%
    08:00 +1°C° 0 mm 2 mps 749 mmHg 93%
    09:00 +1°C° 0 mm 3 mps 749 mmHg 90%
    10:00 +2°C° 0 mm 3 mps 750 mmHg 86%
    11:00 +3°C° 0 mm 3 mps 750 mmHg 83%
    12:00 +4°C° 0 mm 3 mps 750 mmHg 81%
    13:00 +5°C° 0 mm 3 mps 750 mmHg 80%
    14:00 +5°C° 0 mm 3 mps 750 mmHg 79%
    15:00 +4°C° 0 mm 3 mps 750 mmHg 83%
    16:00 +3°C° 0 mm 3 mps 750 mmHg 87%
    17:00 +2°C° 0 mm 3 mps 750 mmHg 91%
    18:00 +2°C° 0 mm 3 mps 750 mmHg 91%
    19:00 +2°C° 0 mm 3 mps 750 mmHg 92%
    20:00 +2°C° 0 mm 3 mps 750 mmHg 92%
    21:00 +1°C° 0 mm 3 mps 750 mmHg 92%
    22:00 +1°C° 0 mm 3 mps 751 mmHg 92%
    23:00 +1°C° 0 mm 3 mps 751 mmHg 92%

    25 November, Saturday

    Time Temperature Precipitation Wind Pressure Humidity
    00:00 +1°C° 0 mm 3 mps 751 mmHg 92%
    01:00 +1°C° 0 mm 3 mps 751 mmHg 92%
    02:00 +1°C° 0 mm 3 mps 751 mmHg 93%
    03:00 +1°C° 0 mm 3 mps 750 mmHg 93%
    04:00 +1°C° 0 mm 3 mps 750 mmHg 94%
    05:00 +1°C° 0 mm 3 mps 750 mmHg 94%
    06:00 0°C° 0 mm 4 mps 750 mmHg 94%
    07:00 0°C° 0 mm 4 mps 750 mmHg 94%
    08:00 0°C° 0 mm 4 mps 750 mmHg 95%
    09:00 +1°C° 0 mm 4 mps 750 mmHg 92%
    10:00 +2°C° 0 mm 5 mps 750 mmHg 89%
    11:00 +3°C° 0 mm 5 mps 750 mmHg 86%
    12:00 +3°C° 0 mm 5 mps 749 mmHg 84%
    13:00 +5°C° 0 mm 5 mps 749 mmHg 82%
    14:00 +6°C° 0 mm 5 mps 748 mmHg 80%
    15:00 +5°C° 0 mm 5 mps 748 mmHg 83%
    16:00 +4°C° 0 mm 4 mps 748 mmHg 86%
    17:00 +4°C° 0 mm 4 mps 747 mmHg 89%
    18:00 +3°C° 0 mm 4 mps 747 mmHg 89%
    19:00 +3°C° 0 mm 4 mps 747 mmHg 90%
    20:00 +2°C° 0 mm 5 mps 747 mmHg 91%
    21:00 +2°C° 0 mm 5 mps 747 mmHg 91%
    22:00 +2°C° 0 mm 5 mps 747 mmHg 91%
    23:00 +2°C° 0 mm 5 mps 747 mmHg 92%

    26 November, Sunday

    Time Temperature Precipitation Wind Pressure Humidity
    00:00 +2°C° 0 mm 5 mps 746 mmHg 92%
    01:00 +2°C° 0 mm 5 mps 746 mmHg 92%
    02:00 +2°C° 0 mm 5 mps 746 mmHg 93%
    03:00 +2°C° 0 mm 5 mps 745 mmHg 92%
    04:00 +2°C° 0 mm 5 mps 745 mmHg 91%
    05:00 +2°C° 0 mm 5 mps 744 mmHg 91%
    06:00 +2°C° 0.2 mm 5 mps 744 mmHg 90%
    07:00 +3°C° 0.2 mm 5 mps 744 mmHg 89%
    08:00 +4°C° 0.2 mm 4 mps 744 mmHg 88%
    09:00 +5°C° 0.2 mm 5 mps 744 mmHg 86%
    10:00 +5°C° 0.2 mm 5 mps 745 mmHg 84%
    11:00 +6°C° 0.2 mm 5 mps 745 mmHg 82%
    12:00 +6°C° 0 mm 5 mps 745 mmHg 82%
    13:00 +6°C° 0 mm 4 mps 745 mmHg 82%
    14:00 +7°C° 0 mm 4 mps 745 mmHg 82%
    15:00 +7°C° 0 mm 3 mps 745 mmHg 84%
    16:00 +5°C° 0 mm 3 mps 745 mmHg 86%
    17:00 +6°C° 0 mm 2 mps 745 mmHg 89%
    18:00 +5°C° 0.1 mm 2 mps 745 mmHg 90%
    19:00 +6°C° 0.1 mm 1 mps 746 mmHg 91%
    20:00 +6°C° 0.1 mm 1 mps 746 mmHg 92%
    21:00 +6°C° 0.2 mm 1 mps 746 mmHg 92%
    22:00 +5°C° 0.2 mm 1 mps 746 mmHg 93%
    23:00 +5°C° 0.2 mm 1 mps 746 mmHg 93%

    27 November, Monday

    Time Temperature Precipitation Wind Pressure Humidity
    00:00 +5°C° 0.3 mm 1 mps 746 mmHg 93%
    01:00 +5°C° 0.3 mm 1 mps 745 mmHg 93%
    02:00 +5°C° 0.3 mm 1 mps 745 mmHg 93%
    03:00 +5°C° 0.6 mm 1 mps 745 mmHg 94%
    04:00 +4°C° 0.6 mm 2 mps 745 mmHg 94%
    05:00 +4°C° 0.6 mm 2 mps 745 mmHg 94%
    06:00 +4°C° 0.6 mm 2 mps 745 mmHg 93%
    07:00 +3°C° 0.6 mm 2 mps 745 mmHg 93%
    08:00 +3°C° 0.6 mm 2 mps 745 mmHg 92%
    09:00 +4°C° 0.1 mm 2 mps 745 mmHg 89%
    10:00 +4°C° 0.1 mm 2 mps 746 mmHg 86%
    11:00 +5°C° 0.1 mm 2 mps 746 mmHg 82%
    12:00 +5°C° 0 mm 2 mps 746 mmHg 79%
    13:00 +5°C° 0 mm 2 mps 746 mmHg 76%
    14:00 +6°C° 0 mm 2 mps 746 mmHg 74%
    15:00 +5°C° 0 mm 2 mps 746 mmHg 77%
    16:00 +5°C° 0 mm 1 mps 746 mmHg 81%
    17:00 +4°C° 0 mm 1 mps 746 mmHg 85%
    18:00 +4°C° 0 mm 1 mps 746 mmHg 86%
    19:00 +3°C° 0 mm 1 mps 746 mmHg 87%
    20:00 +3°C° 0 mm 1 mps 747 mmHg 88%
    21:00 +3°C° 0 mm 1 mps 747 mmHg 88%
    22:00 +1°C° 0 mm 2 mps 747 mmHg 88%
    23:00 +1°C° 0 mm 2 mps 747 mmHg 88%
    Show more